CAPE
816 612 548 76 28 6 5 0 0 0 0 0 0 0 0 1 0 0 1 24 98 91 109 109 64 38 23 94 104 380 22 179 444 366 263 284 181 185 536 872 738 568 573 658 658 836 825 673 278 142 171 96 0 0 0 0 0 0 0 0 0 0 0 2 2 1 0 0 0 0 0 0 0 0 0 0 0 0 0 2 12 38 74 94 99
755 394 571 483 89 34 25 12 4 7 5 0 0 0 0 0 0 0 0 0 9 22 4 0 14 17 79 108 80 84 104 458 401 97 144 119 143 408 547 707 720 645 613 653 680 611 678 653 433 168 150 114 101 56 0 0 0 0 0 0 0 0 0 0 1 2 1 0 0 0 0 0 0 0 0 0 0 0 0 0 1 29 90 140 98
437 706 591 471 410 419 342 253 272 172 39 12 1 0 0 4 14 25 14 1 0 0 2 8 12 33 36 41 52 63 149 6 6 35 88 345 485 588 634 597 647 625 596 602 646 781 784 705 568 361 218 109 80 32 0 0 0 0 0 0 0 0 0 0 0 1 1 0 0 0 0 0 0 0 0 0 0 0 0 0 1 15 70 136 162
661 791 708 601 551 534 253 287 366 309 39 33 52 26 55 44 107 62 28 2 1 55 71 40 51 52 52 347 398 356 0 0 4 11 50 198 395 581 597 508 473 410 332 358 576 770 834 733 628 522 401 280 165 76 30 60 0 0 0 0 0 0 0 0 0 0 1 4 0 1 0 0 0 0 0 0 0 0 0 0 0 0 19 92 156
701 792 853 779 698 561 316 254 325 378 138 88 94 252 361 350 275 366 384 80 50 37 112 129 87 72 85 326 135 0 0 0 1 14 185 468 611 632 586 588 572 399 316 361 384 444 466 520 587 585 499 311 215 172 125 100 41 61 44 14 0 0 0 0 0 0 0 2 3 2 0 0 0 0 0 0 0 0 0 0 0 0 0 20 114
845 854 834 784 710 555 328 504 485 449 108 186 258 402 418 438 458 483 473 484 498 458 31 17 80 4 0 0 0 4 6 0 0 6 316 518 600 634 704 688 422 326 514 713 779 754 690 646 687 770 666 490 408 299 206 159 104 18 0 0 0 0 0 0 0 0 0 0 4 7 0 0 0 0 0 0 0 0 0 0 0 1 20 38 131
996 913 877 805 734 672 605 598 621 506 430 268 426 550 583 630 666 709 744 616 423 131 114 0 0 0 1 1 0 0 0 0 304 333 372 407 497 606 580 345 356 479 672 784 777 660 592 691 844 900 846 697 473 332 290 281 185 126 90 0 0 0 0 0 27 29 23 21 22 31 12 0 0 0 0 0 0 6 12 8 2 0 0 1 1
1128 1001 906 898 872 855 723 666 525 371 437 530 619 721 756 750 758 752 700 0 0 0 0 0 0 3 0 0 0 23 172 272 186 190 351 452 533 588 445 413 483 505 498 492 474 400 462 602 707 744 710 622 504 454 366 321 325 262 200 166 118 23 0 87 67 46 20 27 44 41 24 0 0 0 0 0 0 0 8 28 23 3 0 0 2
1184 1130 963 904 962 943 446 690 675 638 678 738 767 792 800 817 798 804 588 0 0 0 0 0 0 0 11 42 458 413 1 54 276 433 444 494 526 438 465 563 580 556 562 554 540 475 339 305 373 515 662 727 613 414 342 346 334 372 400 341 268 224 100 61 58 58 46 36 37 28 6 0 0 0 0 0 1 4 5 12 20 15 10 9 1
1170 1146 1054 1004 1010 901 777 887 899 794 815 850 874 816 807 755 689 592 331 30 30 48 4 6 17 47 102 442 492 456 36 158 382 354 270 255 168 244 455 597 697 737 739 717 672 645 539 376 415 796 696 575 480 445 441 478 568 585 508 507 426 163 78 115 92 92 62 33 24 5 0 0 0 0 0 0 1 2 9 16 22 16 16 13 5
1116 1127 1047 977 1072 934 418 770 913 810 775 757 693 631 592 562 548 568 513 74 82 90 178 63 84 158 367 556 650 434 273 305 235 156 96 121 202 136 158 197 255 363 458 532 605 641 470 296 338 436 543 612 590 534 640 667 656 708 740 646 515 392 248 68 117 126 80 34 0 4 5 0 0 0 1 2 1 2 18 26 33 32 32 28 9
967 1108 1122 969 1200 893 345 688 828 749 609 639 714 671 657 651 686 651 548 386 120 188 293 430 464 498 599 696 664 523 294 103 75 53 26 6 38 36 21 31 86 137 196 217 226 272 334 392 498 580 474 420 498 629 649 566 565 635 675 674 637 474 460 456 212 107 89 73 40 26 4 0 0 0 0 5 7 5 6 16 26 32 31 26 22
906 1022 883 814 783 644 234 601 743 709 636 705 742 782 761 731 623 538 489 172 252 420 485 515 581 642 701 788 799 622 434 208 0 0 0 12 24 0 0 0 34 58 69 97 146 187 247 405 603 671 465 410 574 587 529 492 591 662 606 660 787 770 501 213 184 250 184 154 80 40 10 4 4 2 9 15 12 18 10 13 14 26 36 33 19
848 946 950 805 629 530 542 662 974 799 632 673 737 759 734 580 464 291 237 337 461 510 578 644 661 706 765 819 835 687 504 219 20 0 19 28 0 0 0 0 42 37 32 63 86 134 240 437 665 749 574 499 521 481 451 514 626 768 790 726 755 632 378 280 374 409 228 115 86 70 22 7 15 11 15 22 28 24 15 14 12 8 18 22 9
1136 1247 1106 921 688 720 527 924 1184 976 776 700 692 671 658 607 542 380 301 501 546 613 650 678 722 728 815 763 746 823 628 328 121 118 62 0 0 0 0 0 34 85 100 68 92 195 394 596 677 667 660 659 587 504 464 497 634 920 881 682 502 331 290 459 410 126 70 66 58 43 13 13 15 10 14 28 30 19 10 12 12 7 7 12 19
1086 958 1128 1258 926 422 532 1577 1788 1323 938 826 738 738 735 737 642 563 509 471 477 548 663 731 814 865 752 646 640 394 642 407 313 29 0 0 0 0 0 0 22 98 94 148 274 474 573 579 571 574 574 557 530 546 436 517 747 704 587 532 476 250 236 192 96 93 83 62 33 12 10 14 12 0 12 24 20 15 7 7 12 14 6 4 6
1074 1184 974 1038 490 233 744 1386 1570 1288 1079 888 853 812 819 762 610 502 458 446 479 571 676 803 825 716 468 232 332 639 590 322 90 0 0 0 0 0 0 0 0 10 107 332 504 428 304 288 433 440 415 445 539 575 617 617 662 665 610 548 368 0 0 107 92 80 52 0 0 0 0 11 0 1 3 7 6 6 7 7 10 7 2 2 7
1144 1274 1266 853 435 310 1106 1381 1086 862 992 922 871 814 685 604 571 538 523 560 667 858 860 696 577 464 489 609 778 708 481 251 103 0 0 0 0 0 0 0 0 102 367 264 19 0 38 193 282 113 214 544 588 636 692 758 721 655 520 62 0 0 45 68 66 52 8 0 0 0 0 0 0 0 2 1 0 1 2 7 2 1 1 4 4
1317 1237 1229 763 477 821 722 504 553 833 834 776 740 650 617 635 636 666 685 691 777 874 718 658 502 118 138 516 540 538 336 112 48 0 0 0 0 0 0 0 96 128 1 0 0 0 0 0 23 0 0 288 331 367 411 356 194 160 182 201 190 47 136 110 49 0 0 0 0 0 2 1 7 5 1 0 0 2 17 28 11 0 2 7 6
1102 1445 957 658 389 740 142 122 306 600 700 675 661 682 700 706 736 774 789 858 871 778 814 979 807 645 508 426 424 334 134 65 33 0 0 0 0 0 0 3 2 0 0 0 0 0 0 0 0 36 336 317 13 0 0 0 0 180 261 287 189 151 60 0 1 0 0 1 0 1 8 5 2 0 0 1 4 30 18 20 19 27 57 67 15
936 789 632 612 286 815 296 36 396 759 888 776 748 786 805 814 843 958 1057 1059 1091 954 483 327 480 569 673 428 107 98 1 0 4 0 0 0 0 0 0 0 0 0 0 0 0 0 0 0 0 0 0 0 0 0 0 30 9 204 214 182 111 32 21 23 1 19 32 4 9 0 2 6 3 0 1 1 2 9 34 22 4 23 49 74 5
846 954 1027 724 426 397 67 438 758 1002 1089 870 756 730 765 1147 1319 1288 1024 876 650 350 238 169 46 459 369 249 0 4 43 34 0 0 0 0 0 0 0 0 0 0 0 0 0 0 0 0 0 0 0 0 0 48 41 94 101 61 45 10 1 0 0 6 6 48 88 2 0 0 4 8 4 0 1 2 1 8 44 97 41 14 0 0 0
778 969 766 456 534 546 570 911 1115 1173 1025 838 754 786 914 967 825 704 549 392 177 47 164 416 565 428 217 0 0 0 0 6 0 0 0 0 0 0 0 0 0 0 0 0 0 0 0 0 0 0 0 0 0 2 4 1 1 0 0 0 0 0 1 4 23 90 22 4 6 1 15 9 2 0 1 1 0 8 60 104 78 54 5 0 0
1136 1142 774 525 1272 827 902 1127 1070 977 892 862 818 786 717 691 563 421 218 166 178 178 391 793 518 106 0 0 0 0 0 0 0 0 0 0 0 0 0 0 0 0 0 0 0 0 0 0 0 0 0 0 2 0 0 0 0 0 0 0 0 1 5 6 2 3 4 16 6 7 13 1 1 0 3 8 1 4 19 14 128 180 60 3 0
871 991 763 537 484 561 810 772 802 884 894 854 802 672 502 343 232 28 160 260 220 181 593 347 0 0 0 0 0 0 0 0 0 0 0 0 0 0 0 0 0 0 0 0 0 0 0 0 0 0 0 2 3 2 1 0 0 0 0 0 0 2 4 4 5 3 2 2 6 6 3 2 4 2 0 11 12 2 11 178 124 207 3 2 0
738 483 436 471 567 340 176 280 412 555 547 518 470 307 200 178 232 256 270 262 392 427 172 0 0 0 0 0 0 0 0 0 0 0 0 0 0 0 0 0 0 0 0 0 0 0 0 0 0 0 0 0 1 0 0 0 0 0 0 0 0 1 1 4 3 2 2 3 4 4 3 4 9 4 1 5 39 8 19 98 121 308 1 1 10
395 390 488 502 0 20 35 34 76 180 296 326 305 287 310 384 406 354 436 466 166 0 4 0 0 0 0 0 0 0 0 0 0 0 0 0 0 0 0 4 0 0 0 0 0 0 0 0 0 0 0 0 0 0 0 0 0 0 0 0 0 1 0 2 2 2 4 3 4 4 3 3 27 0 0 2 18 20 43 51 302 132 253 156 28
124 156 236 16 2 46 346 793 68 85 260 374 400 421 401 357 299 183 192 0 0 4 2 6 0 0 0 0 0 1 0 0 0 0 0 0 0 0 0 0 0 0 0 0 0 0 0 0 0 0 0 0 0 0 0 0 0 0 0 0 0 4 0 0 0 1 0 2 5 6 1 0 0 0 1 1 2 32 42 50 202 112 158 219 16
0 0 30 97 272 389 508 209 210 282 350 298 306 282 268 232 237 0 0 0 0 0 0 0 0 0 0 0 0 0 0 0 0 0 0 0 0 0 0 0 0 0 0 0 2 0 0 0 0 0 0 0 0 0 0 0 0 0 0 0 0 0 0 0 0 0 0 1 2 4 2 0 1 0 2 1 2 38 54 93 28 227 91 22 5
24 65 88 116 236 421 331 245 106 209 194 196 219 251 241 228 72 0 0 0 0 0 0 0 0 0 0 0 0 0 0 0 0 0 0 0 0 0 0 0 0 0 0 0 0 0 0 0 0 0 0 0 0 0 0 0 0 0 0 0 0 0 0 0 0 0 0 0 1 0 0 1 0 1 2 3 22 47 37 20 178 153 116 47 24
47 6 92 92 168 329 358 234 204 167 184 227 274 232 162 0 0 0 0 0 0 0 0 0 0 0 0 0 0 0 0 0 0 0 0 0 0 0 0 0 0 0 0 0 0 0 0 0 0 0 0 0 0 0 0 0 0 0 0 0 0 0 0 0 0 0 0 0 0 0 0 0 0 1 2 4 22 46 30 14 23 120 106 116 88
2 5 76 33 119 278 277 236 182 250 272 252 176 47 0 0 0 0 0 0 0 0 0 0 0 0 0 0 0 0 0 0 0 0 0 0 0 0 0 0 0 0 0 0 0 0 0 0 0 0 0 0 0 0 0 0 0 0 0 0 0 0 0 0 0 0 0 0 0 0 0 0 0 0 0 4 23 28 38 26 33 39 86 91 80
0 0 11 99 261 592 287 293 300 298 268 198 148 26 0 0 18 0 0 0 0 0 0 0 0 0 0 0 0 0 0 0 0 0 0 0 0 0 0 0 0 0 0 0 0 0 0 0 0 0 0 0 0 0 0 0 0 0 0 0 0 0 0 0 0 0 0 0 0 0 0 0 0 0 0 0 6 21 35 46 52 46 22 28 36
24 2 103 331 363 372 334 314 300 260 214 182 151 142 0 0 0 0 0 0 0 6 0 0 0 0 0 0 0 0 0 0 0 0 0 0 0 0 0 0 0 0 0 0 0 0 0 0 0 0 0 0 0 0 0 0 0 0 0 0 0 0 0 0 0 0 0 0 0 0 0 0 0 0 0 0 0 10 17 34 50 43 43 38 40
69 1030 1032 586 265 266 263 253 234 198 167 152 137 38 64 0 0 0 10 28 36 45 33 0 0 0 0 0 0 0 0 0 0 0 0 0 0 0 0 0 0 0 0 0 0 0 0 0 0 0 0 0 0 0 0 0 0 0 0 0 0 0 0 0 0 0 0 0 0 0 0 0 0 0 0 0 0 0 4 13 32 48 39 50 59
370 972 1176 831 229 177 183 182 178 162 160 154 135 18 0 1 1 0 55 58 57 42 12 0 0 0 0 0 0 0 0 0 0 0 0 0 0 0 0 0 0 0 0 0 0 0 0 0 0 0 0 0 0 0 0 0 0 0 0 0 0 0 0 0 0 0 0 0 0 0 0 0 0 0 0 0 0 0 0 4 20 36 55 67 64
190 204 290 203 214 215 200 197 194 160 130 52 45 20 3 0 33 69 69 47 35 19 0 0 0 0 0 0 0 0 0 0 0 0 0 0 0 0 0 0 0 0 0 0 0 0 0 0 0 0 0 0 0 0 0 0 0 0 0 0 0 0 0 0 0 0 0 0 0 0 0 0 0 0 0 0 0 0 0 1 8 21 38 58 54
290 225 180 190 180 184 188 175 126 81 32 42 32 22 6 22 54 41 42 46 34 19 0 0 0 0 0 0 0 0 0 0 0 0 0 0 0 0 0 0 0 0 0 0 0 0 0 0 0 0 0 0 0 0 0 0 0 0 0 0 0 0 0 0 0 0 0 0 0 0 0 0 0 0 0 0 0 0 0 0 0 2 10 31 34
182 174 136 111 213 105 90 0 2 0 55 139 112 18 14 0 0 0 56 42 14 0 0 0 0 0 0 0 0 0 0 0 0 0 0 0 0 0 0 0 0 0 0 0 0 0 0 0 0 0 0 0 0 0 0 0 0 0 0 0 0 0 0 0 0 0 0 0 0 0 0 0 0 0 0 0 0 0 0 0 0 0 0 5 15
113 74 49 180 26 140 222 236 238 34 87 209 172 2 49 78 27 80 25 0 0 0 0 0 0 0 0 0 0 0 0 0 0 0 0 0 0 0 0 0 0 0 0 0 0 0 0 0 0 0 0 0 0 0 0 0 0 0 0 0 0 0 0 0 0 0 0 0 0 0 0 0 0 0 0 0 0 0 0 0 0 0 1 3 9
328 330 268 267 243 210 388 227 212 201 175 2 123 191 212 173 87 5 0 0 0 0 0 0 0 0 0 0 0 0 0 0 0 0 0 0 0 0 0 0 0 0 0 0 0 0 0 0 0 0 0 0 0 0 0 0 0 0 0 0 0 0 0 0 0 0 0 0 0 0 0 0 0 0 0 0 0 0 0 0 0 0 3 6 6
294 326 320 281 257 274 269 240 202 262 271 275 301 295 255 170 0 0 0 0 0 0 0 0 0 0 0 0 0 0 0 0 0 0 0 0 0 0 0 0 0 0 0 0 0 0 0 0 0 0 0 0 0 0 0 0 0 0 0 0 0 0 0 0 0 0 0 0 0 0 0 0 0 0 0 0 0 0 0 0 0 0 0 5 7
432 396 364 343 293 267 273 307 303 352 361 353 330 260 208 173 107 0 0 1 0 0 0 0 0 0 0 0 0 0 0 0 0 0 0 0 0 0 0 0 0 0 0 0 0 0 0 0 0 0 0 0 0 0 0 0 0 0 0 0 0 0 0 0 0 0 0 0 0 0 0 0 0 0 0 0 0 0 0 0 0 0 0 0 5
206 188 191 181 74 104 256 303 324 356 308 271 211 224 225 233 142 38 3 0 0 0 1 1 0 0 0 0 0 0 0 0 0 0 0 0 0 0 0 0 0 0 0 0 0 0 0 0 0 0 0 0 0 0 0 0 0 0 0 0 0 0 0 0 0 0 0 0 0 0 0 0 0 0 0 0 0 0 0 0 0 0 0 0 1
191 188 150 88 0 45 244 332 342 281 276 296 202 32 32 13 0 0 0 9 8 4 2 1 0 0 1 0 0 0 0 0 0 0 0 0 0 0 0 0 0 0 0 0 0 0 0 0 0 0 0 0 0 0 0 0 0 0 0 0 0 0 0 0 0 0 0 0 0 0 0 0 0 0 0 0 0 0 0 0 0 0 0 0 0
80 3 0 0 0 2 140 112 58 30 0 0 0 0 2 50 49 43 20 15 6 3 4 2 1 2 0 0 0 0 0 0 0 0 0 0 0 0 0 0 0 0 0 0 0 0 0 0 0 0 0 0 0 0 0 0 0 0 0 0 0 0 0 0 0 0 0 0 0 0 0 0 0 0 0 0 0 0 0 0 0 0 0 0 0
0 0 0 0 0 0 29 4 0 0 0 0 2 11 18 26 32 10 2 0 2 5 1 3 0 0 0 0 0 0 0 0 0 0 0 0 0 0 0 0 0 0 0 0 0 0 0 0 0 0 0 0 0 0 0 0 0 0 0 0 0 0 0 0 0 0 0 0 0 0 0 0 0 0 0 0 0 0 0 0 0 0 0 0 0
0 0 0 0 0 0 0 0 26 59 0 4 11 10 10 10 8 1 2 6 13 3 4 1 0 2 2 0 0 0 0 0 0 0 0 0 0 0 0 0 0 0 0 0 0 0 0 0 0 0 0 0 0 0 0 0 0 0 0 0 0 0 0 0 0 0 0 0 0 0 0 0 0 0 0 0 0 0 0 0 0 0 0 0 0
0 0 0 0 0 0 0 0 13 44 27 22 26 24 18 13 10 8 2 2 2 10 6 3 4 3 0 0 0 0 0 0 0 0 0 0 0 0 0 0 0 0 0 0 0 0 0 0 0 0 0 0 0 0 0 0 0 0 0 0 0 0 0 0 0 0 0 0 0 0 0 0 0 0 0 0 0 0 0 0 0 0 0 0 0
0 0 0 0 0 0 0 0 0 6 16 24 28 33 35 34 28 25 22 11 2 28 33 30 21 8 0 0 0 0 0 0 0 0 0 0 0 0 0 0 0 0 0 0 0 0 0 0 0 0 0 0 0 0 0 0 0 0 0 0 0 0 0 0 0 0 0 0 0 0 0 0 0 0 0 0 0 0 0 0 0 0 0 0 0
0 0 0 0 0 0 0 0 0 0 6 12 19 27 31 34 38 34 26 22 23 33 43 42 32 6 0 0 0 0 0 0 0 0 0 0 0 0 0 0 0 0 0 0 0 0 0 0 0 0 0 0 0 0 0 0 0 0 0 0 0 0 0 0 0 0 0 0 0 0 0 0 0 0 0 0 0 0 0 0 0 0 0 0 0
Wind_Speed
32 31 31 nan nan nan nan nan nan nan nan nan nan nan nan nan nan nan nan nan nan nan 27 27 nan nan nan nan 28 30 nan 32 34 36 37 36 35 36 37 41 41 40 41 40 42 45 46 47 48 47 48 nan nan nan nan nan nan nan nan nan nan nan nan nan nan nan nan nan nan nan nan nan nan nan nan nan nan nan nan nan nan nan nan nan nan
33 34 33 31 nan nan nan nan nan nan nan nan nan nan nan nan nan nan nan nan nan nan nan nan nan nan nan 28 nan nan 32 34 35 nan 38 39 38 39 39 41 41 41 43 42 42 44 48 48 47 49 51 50 51 nan nan nan nan nan nan nan nan nan nan nan nan nan nan nan nan nan nan nan nan nan nan nan nan nan nan nan nan nan nan 40 nan
33 35 34 33 32 32 33 31 29 30 nan nan nan nan nan nan nan nan nan nan nan nan nan nan nan nan nan nan nan nan 33 nan nan nan nan 41 41 41 43 45 45 45 46 46 45 47 48 48 48 50 52 48 nan nan nan nan nan nan nan nan nan nan nan nan nan nan nan nan nan nan nan nan nan nan nan nan nan nan nan nan nan nan nan 42 40
35 35 35 34 32 31 32 32 33 33 nan nan nan nan nan nan 25 nan nan nan nan nan nan nan nan nan nan 30 31 33 nan nan nan nan nan 41 43 43 44 45 45 45 45 44 45 47 48 48 48 53 55 51 47 nan nan nan nan nan nan nan nan nan nan nan nan nan nan nan nan nan nan nan nan nan nan nan nan nan nan nan nan nan nan nan 42
37 37 37 36 33 33 32 33 35 35 35 nan nan 30 27 26 27 27 27 nan nan nan 32 32 nan nan nan 33 34 nan nan nan nan nan 40 43 44 44 45 46 47 47 47 47 47 48 49 49 49 52 51 48 46 47 49 nan nan nan nan nan nan nan nan nan nan nan nan nan nan nan nan nan nan nan nan nan nan nan nan nan nan nan nan nan 44
40 39 38 36 35 35 33 34 36 37 36 36 34 31 30 29 29 29 31 31 32 34 nan nan nan nan nan nan nan nan nan nan nan nan 43 44 44 45 46 47 48 49 49 49 49 49 49 49 49 49 48 46 46 48 51 52 51 nan nan nan nan nan nan nan nan nan nan nan nan nan nan nan nan nan nan nan nan nan nan nan nan nan nan nan 47
42 41 39 37 36 36 35 35 35 37 36 36 33 32 32 32 32 32 33 34 35 35 35 nan nan nan nan nan nan nan nan nan 43 45 45 45 46 46 47 48 49 50 50 49 48 48 49 49 47 45 43 44 46 53 55 50 48 43 nan nan nan nan nan nan nan nan nan nan nan nan nan nan nan nan nan nan nan nan nan nan nan nan nan nan nan
44 42 40 37 37 39 37 32 32 34 35 35 35 34 34 33 34 35 36 nan nan nan nan nan nan nan nan nan nan nan 42 43 45 46 47 48 48 47 47 48 49 50 49 48 48 47 47 45 41 39 42 45 50 53 50 46 43 38 37 38 37 nan nan nan nan nan nan nan nan nan nan nan nan nan nan nan nan nan nan nan nan nan nan nan nan
45 44 41 39 41 44 39 31 32 34 35 37 37 36 34 33 35 37 38 nan nan nan nan nan nan nan nan nan 40 41 nan nan 47 48 49 49 49 47 46 47 48 48 47 47 46 44 42 39 36 36 40 44 49 50 47 43 38 35 35 38 37 38 nan nan nan nan nan nan nan nan nan nan nan nan nan nan nan nan nan nan nan nan nan nan nan
46 45 44 44 47 45 38 33 34 35 35 37 39 39 35 34 36 38 39 nan nan nan nan nan nan nan 40 40 40 41 nan 46 47 50 51 50 50 48 46 47 48 47 46 43 41 40 39 37 33 34 39 42 44 44 40 37 36 35 35 37 37 39 nan 37 nan nan nan nan nan nan nan nan nan nan nan nan nan nan nan nan nan nan nan nan nan
45 46 46 46 46 43 42 33 33 33 35 38 40 39 35 34 37 39 38 nan nan nan 41 nan nan 41 41 41 41 42 45 47 49 50 nan 50 49 48 47 45 46 46 45 44 41 38 38 36 34 33 36 37 36 35 33 30 30 31 30 33 37 38 37 nan 34 38 nan nan nan nan nan nan nan nan nan nan nan nan nan nan nan nan nan nan nan
43 44 43 43 42 41 41 33 31 34 36 39 39 36 34 35 37 39 38 37 39 40 41 42 42 42 41 42 43 45 47 49 nan nan nan nan nan nan nan nan nan 45 45 44 42 41 39 37 35 35 37 37 36 35 32 30 30 30 33 36 35 35 37 37 35 36 nan nan nan nan nan nan nan nan nan nan nan nan nan nan nan nan nan nan nan
46 47 46 46 47 43 37 30 31 34 36 37 37 35 35 36 38 39 39 38 40 41 41 42 41 41 41 44 45 46 46 48 nan nan nan nan nan nan nan nan nan nan nan nan 43 42 40 39 36 35 38 36 35 36 35 32 30 30 31 32 31 29 27 30 40 39 39 41 nan nan nan nan nan nan nan nan nan nan nan nan nan nan nan nan nan
47 47 49 50 45 43 36 31 33 33 34 36 36 36 36 37 39 40 39 39 40 40 41 42 41 41 45 48 46 43 43 48 nan nan nan nan nan nan nan nan nan nan nan nan nan 41 40 39 37 36 38 39 38 36 36 34 33 32 33 33 31 28 28 31 33 35 40 42 nan nan nan nan nan nan nan nan nan nan nan nan nan nan nan nan nan
49 49 48 48 43 34 30 36 33 30 31 34 37 37 36 36 38 40 40 40 40 40 42 43 40 42 47 44 38 39 45 53 55 54 nan nan nan nan nan nan nan nan 44 nan nan 42 40 39 39 38 38 37 37 38 36 33 33 32 31 30 29 28 30 33 36 38 nan nan nan nan nan nan nan nan nan nan nan nan nan nan nan nan nan nan nan
50 50 49 45 39 30 30 36 31 29 30 36 38 37 36 37 38 40 40 38 37 39 42 42 39 41 45 38 34 42 52 57 56 nan nan nan nan nan nan nan nan nan nan 44 43 42 41 39 38 37 38 36 34 35 34 33 33 32 30 28 26 28 32 33 nan nan nan nan nan nan nan nan nan nan nan nan nan nan nan nan nan nan nan nan nan
50 48 43 39 32 24 29 34 32 31 35 40 39 37 36 35 36 40 40 36 35 40 43 43 42 44 46 45 47 51 52 53 nan nan nan nan nan nan nan nan nan nan 43 44 43 42 41 40 38 38 38 36 34 33 35 37 35 31 28 26 27 nan nan 31 nan nan nan nan nan nan nan nan nan nan nan nan nan nan nan nan nan nan nan nan nan
50 46 40 36 30 28 28 30 31 34 39 40 37 35 34 34 36 40 39 35 37 44 49 46 45 49 50 50 52 52 51 56 60 nan nan nan nan nan nan nan nan 43 42 43 nan nan nan 35 35 38 38 37 36 34 38 34 30 27 25 nan nan nan nan nan nan nan nan nan nan nan nan nan nan nan nan nan nan nan nan nan nan nan nan nan nan
43 41 38 38 39 33 27 33 34 36 40 38 35 33 33 35 36 40 38 40 44 48 50 46 44 48 50 50 48 53 56 57 nan nan nan nan nan nan nan nan nan 42 nan nan nan nan nan nan nan nan nan 35 34 32 32 30 28 27 27 27 27 nan 29 31 nan nan nan nan nan nan nan nan nan nan nan nan nan nan nan nan nan nan nan nan nan
37 37 41 43 44 39 31 33 33 36 37 35 33 32 34 36 39 42 41 42 45 47 48 47 46 49 54 55 52 53 57 nan nan nan nan nan nan nan nan nan nan nan nan nan nan nan nan nan nan nan 36 33 nan nan nan nan nan 27 27 27 28 28 nan nan nan nan nan nan nan nan nan nan nan nan nan nan nan nan nan nan nan nan nan nan nan
38 40 42 44 44 41 35 nan 33 35 37 34 32 34 37 39 41 42 44 46 47 48 49 47 48 52 53 53 53 nan nan nan nan nan nan nan nan nan nan nan nan nan nan nan nan nan nan nan nan nan nan nan nan nan nan nan nan 26 27 27 28 nan nan nan nan nan nan nan nan nan nan nan nan nan nan nan nan nan nan nan nan nan nan nan nan
39 42 43 43 44 40 nan 35 37 38 36 35 37 39 40 41 40 42 46 48 48 46 44 46 nan 52 53 52 nan nan nan nan nan nan nan nan nan nan nan nan nan nan nan nan nan nan nan nan nan nan nan nan nan nan nan nan 25 nan nan nan nan nan nan nan nan nan nan nan nan nan nan nan nan nan nan nan nan nan nan nan nan nan nan nan nan
36 39 42 40 37 35 37 37 39 41 40 39 42 43 42 43 42 46 50 50 48 nan 46 51 53 54 53 nan nan nan nan nan nan nan nan nan nan nan nan nan nan nan nan nan nan nan nan nan nan nan nan nan nan nan nan nan nan nan nan nan nan nan nan nan nan nan nan nan nan nan nan nan nan nan nan nan nan nan nan 25 nan nan nan nan nan
41 42 41 35 27 32 42 44 45 43 41 41 44 43 42 43 46 47 49 50 50 49 52 55 54 54 nan nan nan nan nan nan nan nan nan nan nan nan nan nan nan nan nan nan nan nan nan nan nan nan nan nan nan nan nan nan nan nan nan nan nan nan nan nan nan nan nan nan nan nan nan nan nan nan nan nan nan nan nan nan 29 27 nan nan nan
43 39 39 34 38 46 45 43 41 41 40 41 42 41 40 41 44 nan 48 48 50 54 55 55 nan nan nan nan nan nan nan nan nan nan nan nan nan nan nan nan nan nan nan nan nan nan nan nan nan nan nan nan nan nan nan nan nan nan nan nan nan nan nan nan nan nan nan nan nan nan nan nan nan nan nan nan nan nan nan 28 30 32 nan nan nan
43 41 38 41 43 42 43 44 47 43 39 37 39 39 40 40 44 47 50 51 53 56 55 nan nan nan nan nan nan nan nan nan nan nan nan nan nan nan nan nan nan nan nan nan nan nan nan nan nan nan nan nan nan nan nan nan nan nan nan nan nan nan nan nan nan nan nan nan nan nan nan nan nan nan nan nan nan nan nan nan 34 38 nan nan nan
45 44 44 45 nan nan nan nan nan 42 38 38 39 39 40 44 48 52 53 53 53 nan nan nan nan nan nan nan nan nan nan nan nan nan nan nan nan nan nan nan nan nan nan nan nan nan nan nan nan nan nan nan nan nan nan nan nan nan nan nan nan nan nan nan nan nan nan nan nan nan nan nan nan nan nan nan nan nan nan nan 35 40 42 43 nan
44 46 48 nan nan nan 51 51 nan nan 36 37 41 42 43 46 52 52 52 nan nan nan nan nan nan nan nan nan nan nan nan nan nan nan nan nan nan nan nan nan nan nan nan nan nan nan nan nan nan nan nan nan nan nan nan nan nan nan nan nan nan nan nan nan nan nan nan nan nan nan nan nan nan nan nan nan nan nan nan nan 37 39 41 43 nan
nan nan nan nan 49 49 47 40 36 37 39 41 43 42 41 44 50 nan nan nan nan nan nan nan nan nan nan nan nan nan nan nan nan nan nan nan nan nan nan nan nan nan nan nan nan nan nan nan nan nan nan nan nan nan nan nan nan nan nan nan nan nan nan nan nan nan nan nan nan nan nan nan nan nan nan nan nan nan nan nan nan 39 nan nan nan
nan nan nan 45 41 36 32 31 34 41 46 48 48 47 47 47 nan nan nan nan nan nan nan nan nan nan nan nan nan nan nan nan nan nan nan nan nan nan nan nan nan nan nan nan nan nan nan nan nan nan nan nan nan nan nan nan nan nan nan nan nan nan nan nan nan nan nan nan nan nan nan nan nan nan nan nan nan nan nan nan 36 39 38 nan nan
nan nan nan nan 32 31 34 39 45 54 55 53 52 53 50 nan nan nan nan nan nan nan nan nan nan nan nan nan nan nan nan nan nan nan nan nan nan nan nan nan nan nan nan nan nan nan nan nan nan nan nan nan nan nan nan nan nan nan nan nan nan nan nan nan nan nan nan nan nan nan nan nan nan nan nan nan nan nan nan nan nan 37 37 35 nan
nan nan nan nan 46 48 51 54 56 58 55 52 53 nan nan nan nan nan nan nan nan nan nan nan nan nan nan nan nan nan nan nan nan nan nan nan nan nan nan nan nan nan nan nan nan nan nan nan nan nan nan nan nan nan nan nan nan nan nan nan nan nan nan nan nan nan nan nan nan nan nan nan nan nan nan nan nan nan nan nan nan nan nan nan nan
nan nan nan nan 57 58 59 58 57 56 55 54 53 nan nan nan nan nan nan nan nan nan nan nan nan nan nan nan nan nan nan nan nan nan nan nan nan nan nan nan nan nan nan nan nan nan nan nan nan nan nan nan nan nan nan nan nan nan nan nan nan nan nan nan nan nan nan nan nan nan nan nan nan nan nan nan nan nan nan nan nan nan nan nan nan
nan nan 56 60 61 60 58 56 55 53 53 54 54 55 nan nan nan nan nan nan nan nan nan nan nan nan nan nan nan nan nan nan nan nan nan nan nan nan nan nan nan nan nan nan nan nan nan nan nan nan nan nan nan nan nan nan nan nan nan nan nan nan nan nan nan nan nan nan nan nan nan nan nan nan nan nan nan nan nan nan nan nan nan nan nan
nan 56 61 61 60 58 56 55 54 53 53 54 55 nan nan nan nan nan nan nan nan nan nan nan nan nan nan nan nan nan nan nan nan nan nan nan nan nan nan nan nan nan nan nan nan nan nan nan nan nan nan nan nan nan nan nan nan nan nan nan nan nan nan nan nan nan nan nan nan nan nan nan nan nan nan nan nan nan nan nan nan nan nan nan nan
57 57 56 56 56 55 55 53 53 53 54 55 57 nan nan nan nan nan nan nan nan nan nan nan nan nan nan nan nan nan nan nan nan nan nan nan nan nan nan nan nan nan nan nan nan nan nan nan nan nan nan nan nan nan nan nan nan nan nan nan nan nan nan nan nan nan nan nan nan nan nan nan nan nan nan nan nan nan nan nan nan nan nan nan nan
55 54 53 52 53 54 55 55 54 55 56 nan nan nan nan nan nan nan nan nan nan nan nan nan nan nan nan nan nan nan nan nan nan nan nan nan nan nan nan nan nan nan nan nan nan nan nan nan nan nan nan nan nan nan nan nan nan nan nan nan nan nan nan nan nan nan nan nan nan nan nan nan nan nan nan nan nan nan nan nan nan nan nan nan nan
53 54 54 55 56 58 60 60 59 nan nan nan nan nan nan nan nan nan nan nan nan nan nan nan nan nan nan nan nan nan nan nan nan nan nan nan nan nan nan nan nan nan nan nan nan nan nan nan nan nan nan nan nan nan nan nan nan nan nan nan nan nan nan nan nan nan nan nan nan nan nan nan nan nan nan nan nan nan nan nan nan nan nan nan nan
57 60 63 62 60 61 nan nan nan nan nan 57 58 nan nan nan nan nan nan nan nan nan nan nan nan nan nan nan nan nan nan nan nan nan nan nan nan nan nan nan nan nan nan nan nan nan nan nan nan nan nan nan nan nan nan nan nan nan nan nan nan nan nan nan nan nan nan nan nan nan nan nan nan nan nan nan nan nan nan nan nan nan nan nan nan
58 nan nan 62 nan 59 58 56 55 nan nan 56 58 nan nan nan nan nan nan nan nan nan nan nan nan nan nan nan nan nan nan nan nan nan nan nan nan nan nan nan nan nan nan nan nan nan nan nan nan nan nan nan nan nan nan nan nan nan nan nan nan nan nan nan nan nan nan nan nan nan nan nan nan nan nan nan nan nan nan nan nan nan nan nan nan
53 54 55 55 55 54 53 54 55 56 55 nan 56 56 55 54 nan nan nan nan nan nan nan nan nan nan nan nan nan nan nan nan nan nan nan nan nan nan nan nan nan nan nan nan nan nan nan nan nan nan nan nan nan nan nan nan nan nan nan nan nan nan nan nan nan nan nan nan nan nan nan nan nan nan nan nan nan nan nan nan nan nan nan nan nan
52 51 49 48 50 52 55 55 54 53 53 53 53 53 53 53 nan nan nan nan nan nan nan nan nan nan nan nan nan nan nan nan nan nan nan nan nan nan nan nan nan nan nan nan nan nan nan nan nan nan nan nan nan nan nan nan nan nan nan nan nan nan nan nan nan nan nan nan nan nan nan nan nan nan nan nan nan nan nan nan nan nan nan nan nan
50 48 50 51 51 49 53 55 54 53 52 52 51 52 52 51 50 nan nan nan nan nan nan nan nan nan nan nan nan nan nan nan nan nan nan nan nan nan nan nan nan nan nan nan nan nan nan nan nan nan nan nan nan nan nan nan nan nan nan nan nan nan nan nan nan nan nan nan nan nan nan nan nan nan nan nan nan nan nan nan nan nan nan nan nan
51 52 55 57 nan 54 53 55 57 55 53 52 51 50 49 48 48 nan nan nan nan nan nan nan nan nan nan nan nan nan nan nan nan nan nan nan nan nan nan nan nan nan nan nan nan nan nan nan nan nan nan nan nan nan nan nan nan nan nan nan nan nan nan nan nan nan nan nan nan nan nan nan nan nan nan nan nan nan nan nan nan nan nan nan nan
52 54 54 nan nan nan 52 52 52 52 49 48 46 nan nan nan nan nan nan nan nan nan nan nan nan nan nan nan nan nan nan nan nan nan nan nan nan nan nan nan nan nan nan nan nan nan nan nan nan nan nan nan nan nan nan nan nan nan nan nan nan nan nan nan nan nan nan nan nan nan nan nan nan nan nan nan nan nan nan nan nan nan nan nan nan
nan nan nan nan nan nan 45 44 nan nan nan nan nan nan nan nan nan nan nan nan nan nan nan nan nan nan nan nan nan nan nan nan nan nan nan nan nan nan nan nan nan nan nan nan nan nan nan nan nan nan nan nan nan nan nan nan nan nan nan nan nan nan nan nan nan nan nan nan nan nan nan nan nan nan nan nan nan nan nan nan nan nan nan nan nan
nan nan nan nan nan nan nan nan nan nan nan nan nan nan nan nan nan nan nan nan nan nan nan nan nan nan nan nan nan nan nan nan nan nan nan nan nan nan nan nan nan nan nan nan nan nan nan nan nan nan nan nan nan nan nan nan nan nan nan nan nan nan nan nan nan nan nan nan nan nan nan nan nan nan nan nan nan nan nan nan nan nan nan nan nan
nan nan nan nan nan nan nan nan nan nan nan nan nan nan nan nan nan nan nan nan nan nan nan nan nan nan nan nan nan nan nan nan nan nan nan nan nan nan nan nan nan nan nan nan nan nan nan nan nan nan nan nan nan nan nan nan nan nan nan nan nan nan nan nan nan nan nan nan nan nan nan nan nan nan nan nan nan nan nan nan nan nan nan nan nan
nan nan nan nan nan nan nan nan nan nan nan nan nan nan nan nan nan nan nan nan nan nan nan nan nan nan nan nan nan nan nan nan nan nan nan nan nan nan nan nan nan nan nan nan nan nan nan nan nan nan nan nan nan nan nan nan nan nan nan nan nan nan nan nan nan nan nan nan nan nan nan nan nan nan nan nan nan nan nan nan nan nan nan nan nan
nan nan nan nan nan nan nan nan nan nan nan nan nan nan nan nan nan nan nan nan nan nan nan nan nan nan nan nan nan nan nan nan nan nan nan nan nan nan nan nan nan nan nan nan nan nan nan nan nan nan nan nan nan nan nan nan nan nan nan nan nan nan nan nan nan nan nan nan nan nan nan nan nan nan nan nan nan nan nan nan nan nan nan nan nan
nan nan nan nan nan nan nan nan nan nan nan nan nan nan nan nan nan nan nan nan nan nan nan nan nan nan nan nan nan nan nan nan nan nan nan nan nan nan nan nan nan nan nan nan nan nan nan nan nan nan nan nan nan nan nan nan nan nan nan nan nan nan nan nan nan nan nan nan nan nan nan nan nan nan nan nan nan nan nan nan nan nan nan nan nan
Wind_Direction
309 311 309 nan nan nan nan nan nan nan nan nan nan nan nan nan nan nan nan nan nan nan 315 314 nan nan nan nan 310 312 nan 315 316 315 315 316 319 322 322 323 324 325 324 324 322 322 322 315 316 323 318 nan nan nan nan nan nan nan nan nan nan nan nan nan nan nan nan nan nan nan nan nan nan nan nan nan nan nan nan nan nan nan nan nan nan
308 308 308 307 nan nan nan nan nan nan nan nan nan nan nan nan nan nan nan nan nan nan nan nan nan nan nan 305 nan nan 312 314 315 nan 316 318 320 320 319 322 324 325 323 323 323 322 318 320 320 322 321 314 309 nan nan nan nan nan nan nan nan nan nan nan nan nan nan nan nan nan nan nan nan nan nan nan nan nan nan nan nan nan nan 236 nan
306 306 308 307 308 305 301 302 303 305 nan nan nan nan nan nan nan nan nan nan nan nan nan nan nan nan nan nan nan nan 313 nan nan nan nan 319 320 319 322 324 325 325 322 323 323 321 321 321 322 318 307 307 nan nan nan nan nan nan nan nan nan nan nan nan nan nan nan nan nan nan nan nan nan nan nan nan nan nan nan nan nan nan nan 233 234
305 304 305 307 306 300 299 300 303 305 nan nan nan nan nan nan 312 nan nan nan nan nan nan nan nan nan nan 306 309 312 nan nan nan nan nan 320 323 325 325 324 323 321 321 321 322 321 322 322 322 318 318 320 317 nan nan nan nan nan nan nan nan nan nan nan nan nan nan nan nan nan nan nan nan nan nan nan nan nan nan nan nan nan nan nan 231
305 305 306 308 306 301 299 299 302 305 308 nan nan 310 311 315 313 314 311 nan nan nan 312 311 nan nan nan 312 313 nan nan nan nan nan 322 323 324 325 325 324 323 322 323 322 322 321 322 323 324 321 321 320 317 315 315 nan nan nan nan nan nan nan nan nan nan nan nan nan nan nan nan nan nan nan nan nan nan nan nan nan nan nan nan nan 230
307 305 305 305 302 302 303 301 302 305 309 309 311 311 310 313 315 312 309 312 312 311 nan nan nan nan nan nan nan nan nan nan nan nan 324 324 325 325 325 323 323 324 323 323 323 322 322 323 323 323 322 321 320 318 308 304 307 nan nan nan nan nan nan nan nan nan nan nan nan nan nan nan nan nan nan nan nan nan nan nan nan nan nan nan 227
305 304 304 304 303 303 299 298 300 308 312 311 310 307 306 311 314 313 311 312 313 312 313 nan nan nan nan nan nan nan nan nan 323 323 324 324 326 325 324 324 324 324 323 323 323 322 322 321 322 323 324 324 323 314 314 315 310 312 nan nan nan nan nan nan nan nan nan nan nan nan nan nan nan nan nan nan nan nan nan nan nan nan nan nan nan
304 303 302 301 300 297 290 286 297 308 311 309 309 304 302 310 314 312 310 nan nan nan nan nan nan nan nan nan nan nan 321 321 323 324 325 325 326 327 326 325 324 323 323 322 322 322 321 321 323 324 325 324 320 318 318 316 312 311 308 304 303 nan nan nan nan nan nan nan nan nan nan nan nan nan nan nan nan nan nan nan nan nan nan nan nan
304 302 301 301 296 293 296 301 296 303 307 308 307 301 302 311 314 312 312 nan nan nan nan nan nan nan nan nan 318 320 nan nan 322 323 325 325 325 327 327 325 323 321 320 320 320 321 322 322 324 324 325 328 329 327 323 320 315 311 307 305 305 305 nan nan nan nan nan nan nan nan nan nan nan nan nan nan nan nan nan nan nan nan nan nan nan
304 302 303 299 295 301 302 294 298 301 305 309 305 299 300 307 312 314 315 nan nan nan nan nan nan nan 316 317 319 321 nan 321 324 328 326 322 323 324 324 324 323 321 320 319 319 319 321 322 321 326 331 335 333 329 326 325 323 315 308 305 305 302 nan 308 nan nan nan nan nan nan nan nan nan nan nan nan nan nan nan nan nan nan nan nan nan
305 303 301 297 296 296 293 298 300 305 310 308 300 295 298 304 310 315 315 nan nan nan 314 nan nan 316 319 320 322 323 322 322 327 326 nan 322 322 324 325 325 322 320 319 319 318 318 318 318 315 316 323 327 324 320 319 321 320 320 317 308 303 307 307 nan 308 301 nan nan nan nan nan nan nan nan nan nan nan nan nan nan nan nan nan nan nan
299 293 291 283 278 286 292 298 302 310 309 306 301 297 296 302 310 314 314 315 316 314 314 315 317 319 321 322 323 324 323 326 nan nan nan nan nan nan nan nan nan 319 318 317 315 313 315 317 312 310 315 322 318 311 311 316 318 316 312 312 317 320 319 317 306 302 nan nan nan nan nan nan nan nan nan nan nan nan nan nan nan nan nan nan nan
299 302 303 292 282 284 294 301 303 305 305 303 300 299 299 303 309 311 315 316 312 314 315 314 318 320 322 323 323 322 322 323 nan nan nan nan nan nan nan nan nan nan nan nan 314 313 313 315 312 310 313 321 318 311 309 311 312 310 308 310 315 319 318 317 316 315 311 310 nan nan nan nan nan nan nan nan nan nan nan nan nan nan nan nan nan
304 298 290 289 293 298 303 296 292 298 300 299 302 304 303 306 310 312 313 311 312 314 314 316 318 321 324 324 322 320 322 322 nan nan nan nan nan nan nan nan nan nan nan nan nan 313 313 315 313 311 312 314 314 311 308 311 311 305 301 303 307 311 314 314 317 322 320 315 nan nan nan nan nan nan nan nan nan nan nan nan nan nan nan nan nan
294 286 286 288 290 290 288 285 285 289 294 300 305 307 307 307 309 312 312 311 312 315 316 317 319 324 327 323 318 320 324 327 327 325 nan nan nan nan nan nan nan nan 314 nan nan 315 315 315 314 315 312 311 312 310 309 312 312 307 303 305 306 306 306 307 308 310 nan nan nan nan nan nan nan nan nan nan nan nan nan nan nan nan nan nan nan
283 280 286 292 291 288 288 287 289 287 296 304 307 307 306 309 312 311 310 309 311 315 314 315 316 311 304 308 316 323 322 327 326 nan nan nan nan nan nan nan nan nan nan 313 313 313 314 316 314 313 311 310 310 312 313 313 314 312 307 304 305 304 305 310 nan nan nan nan nan nan nan nan nan nan nan nan nan nan nan nan nan nan nan nan nan
292 285 277 275 277 285 292 300 294 292 301 308 307 306 305 309 312 309 308 307 310 316 312 304 304 308 315 319 321 318 318 323 nan nan nan nan nan nan nan nan nan nan 312 311 311 311 313 313 313 312 310 308 308 306 303 307 309 311 310 308 306 nan nan 310 nan nan nan nan nan nan nan nan nan nan nan nan nan nan nan nan nan nan nan nan nan
298 292 283 283 296 300 299 298 294 297 304 308 307 304 305 306 311 309 309 305 300 299 301 304 307 311 314 320 320 317 318 322 325 nan nan nan nan nan nan nan nan 312 310 309 nan nan nan 309 309 310 310 308 307 309 309 309 309 310 306 nan nan nan nan nan nan nan nan nan nan nan nan nan nan nan nan nan nan nan nan nan nan nan nan nan nan
301 293 289 295 301 303 301 297 296 298 303 306 303 301 302 307 308 304 299 291 295 302 303 307 308 307 310 312 316 318 317 318 nan nan nan nan nan nan nan nan nan 311 nan nan nan nan nan nan nan nan nan 306 305 307 306 308 309 308 307 307 308 nan 311 308 nan nan nan nan nan nan nan nan nan nan nan nan nan nan nan nan nan nan nan nan nan
308 301 296 296 298 305 306 298 296 296 298 299 297 298 299 298 297 296 298 296 295 300 304 302 307 309 310 318 323 318 314 nan nan nan nan nan nan nan nan nan nan nan nan nan nan nan nan nan nan nan 300 296 nan nan nan nan nan 306 306 307 307 311 nan nan nan nan nan nan nan nan nan nan nan nan nan nan nan nan nan nan nan nan nan nan nan
303 303 302 303 300 302 301 nan 298 294 293 296 296 291 290 292 291 296 298 298 298 298 299 305 310 313 319 317 317 nan nan nan nan nan nan nan nan nan nan nan nan nan nan nan nan nan nan nan nan nan nan nan nan nan nan nan nan 307 304 303 306 nan nan nan nan nan nan nan nan nan nan nan nan nan nan nan nan nan nan nan nan nan nan nan nan
303 304 307 302 291 290 nan 299 293 289 290 288 283 281 283 286 291 296 299 298 295 295 300 303 nan 313 315 314 nan nan nan nan nan nan nan nan nan nan nan nan nan nan nan nan nan nan nan nan nan nan nan nan nan nan nan nan 313 nan nan nan nan nan nan nan nan nan nan nan nan nan nan nan nan nan nan nan nan nan nan nan nan nan nan nan nan
300 305 303 293 284 288 296 300 289 279 279 281 280 281 283 286 290 296 301 301 300 nan 306 306 308 311 313 nan nan nan nan nan nan nan nan nan nan nan nan nan nan nan nan nan nan nan nan nan nan nan nan nan nan nan nan nan nan nan nan nan nan nan nan nan nan nan nan nan nan nan nan nan nan nan nan nan nan nan nan 194 nan nan nan nan nan
294 290 277 261 265 285 291 283 274 274 278 277 278 281 285 290 293 298 301 305 305 303 306 308 309 312 nan nan nan nan nan nan nan nan nan nan nan nan nan nan nan nan nan nan nan nan nan nan nan nan nan nan nan nan nan nan nan nan nan nan nan nan nan nan nan nan nan nan nan nan nan nan nan nan nan nan nan nan nan nan 206 210 nan nan nan
286 284 275 268 270 279 276 270 269 271 273 276 279 284 286 290 294 nan 306 306 304 306 310 312 nan nan nan nan nan nan nan nan nan nan nan nan nan nan nan nan nan nan nan nan nan nan nan nan nan nan nan nan nan nan nan nan nan nan nan nan nan nan nan nan nan nan nan nan nan nan nan nan nan nan nan nan nan nan nan 200 203 205 nan nan nan
290 289 284 276 272 271 270 265 264 263 263 270 283 291 294 296 298 300 303 303 306 309 312 nan nan nan nan nan nan nan nan nan nan nan nan nan nan nan nan nan nan nan nan nan nan nan nan nan nan nan nan nan nan nan nan nan nan nan nan nan nan nan nan nan nan nan nan nan nan nan nan nan nan nan nan nan nan nan nan nan 196 196 nan nan nan
285 289 289 286 nan nan nan nan nan 263 263 272 280 285 288 291 297 302 304 306 307 nan nan nan nan nan nan nan nan nan nan nan nan nan nan nan nan nan nan nan nan nan nan nan nan nan nan nan nan nan nan nan nan nan nan nan nan nan nan nan nan nan nan nan nan nan nan nan nan nan nan nan nan nan nan nan nan nan nan nan 194 194 192 190 nan
282 284 290 nan nan nan 269 274 nan nan 263 270 277 282 288 297 301 304 306 nan nan nan nan nan nan nan nan nan nan nan nan nan nan nan nan nan nan nan nan nan nan nan nan nan nan nan nan nan nan nan nan nan nan nan nan nan nan nan nan nan nan nan nan nan nan nan nan nan nan nan nan nan nan nan nan nan nan nan nan nan 192 192 194 191 nan
nan nan nan nan 273 267 266 266 266 269 276 281 284 289 296 299 302 nan nan nan nan nan nan nan nan nan nan nan nan nan nan nan nan nan nan nan nan nan nan nan nan nan nan nan nan nan nan nan nan nan nan nan nan nan nan nan nan nan nan nan nan nan nan nan nan nan nan nan nan nan nan nan nan nan nan nan nan nan nan nan nan 193 nan nan nan
nan nan nan 268 264 264 262 262 271 285 295 301 301 299 294 294 nan nan nan nan nan nan nan nan nan nan nan nan nan nan nan nan nan nan nan nan nan nan nan nan nan nan nan nan nan nan nan nan nan nan nan nan nan nan nan nan nan nan nan nan nan nan nan nan nan nan nan nan nan nan nan nan nan nan nan nan nan nan nan nan 193 197 200 nan nan
nan nan nan nan 282 279 275 275 286 297 305 307 306 305 305 nan nan nan nan nan nan nan nan nan nan nan nan nan nan nan nan nan nan nan nan nan nan nan nan nan nan nan nan nan nan nan nan nan nan nan nan nan nan nan nan nan nan nan nan nan nan nan nan nan nan nan nan nan nan nan nan nan nan nan nan nan nan nan nan nan nan 201 205 205 nan
nan nan nan nan 304 297 290 290 295 301 305 306 307 nan nan nan nan nan nan nan nan nan nan nan nan nan nan nan nan nan nan nan nan nan nan nan nan nan nan nan nan nan nan nan nan nan nan nan nan nan nan nan nan nan nan nan nan nan nan nan nan nan nan nan nan nan nan nan nan nan nan nan nan nan nan nan nan nan nan nan nan nan nan nan nan
nan nan nan nan 299 297 295 295 299 302 305 306 308 nan nan nan nan nan nan nan nan nan nan nan nan nan nan nan nan nan nan nan nan nan nan nan nan nan nan nan nan nan nan nan nan nan nan nan nan nan nan nan nan nan nan nan nan nan nan nan nan nan nan nan nan nan nan nan nan nan nan nan nan nan nan nan nan nan nan nan nan nan nan nan nan
nan nan 295 297 298 297 296 297 300 302 304 306 307 307 nan nan nan nan nan nan nan nan nan nan nan nan nan nan nan nan nan nan nan nan nan nan nan nan nan nan nan nan nan nan nan nan nan nan nan nan nan nan nan nan nan nan nan nan nan nan nan nan nan nan nan nan nan nan nan nan nan nan nan nan nan nan nan nan nan nan nan nan nan nan nan
nan 296 298 296 296 294 294 296 300 302 303 305 305 nan nan nan nan nan nan nan nan nan nan nan nan nan nan nan nan nan nan nan nan nan nan nan nan nan nan nan nan nan nan nan nan nan nan nan nan nan nan nan nan nan nan nan nan nan nan nan nan nan nan nan nan nan nan nan nan nan nan nan nan nan nan nan nan nan nan nan nan nan nan nan nan
290 289 290 292 291 289 290 295 299 301 303 303 301 nan nan nan nan nan nan nan nan nan nan nan nan nan nan nan nan nan nan nan nan nan nan nan nan nan nan nan nan nan nan nan nan nan nan nan nan nan nan nan nan nan nan nan nan nan nan nan nan nan nan nan nan nan nan nan nan nan nan nan nan nan nan nan nan nan nan nan nan nan nan nan nan
289 289 289 288 287 287 290 295 297 298 297 nan nan nan nan nan nan nan nan nan nan nan nan nan nan nan nan nan nan nan nan nan nan nan nan nan nan nan nan nan nan nan nan nan nan nan nan nan nan nan nan nan nan nan nan nan nan nan nan nan nan nan nan nan nan nan nan nan nan nan nan nan nan nan nan nan nan nan nan nan nan nan nan nan nan
286 288 288 287 285 287 290 294 296 nan nan nan nan nan nan nan nan nan nan nan nan nan nan nan nan nan nan nan nan nan nan nan nan nan nan nan nan nan nan nan nan nan nan nan nan nan nan nan nan nan nan nan nan nan nan nan nan nan nan nan nan nan nan nan nan nan nan nan nan nan nan nan nan nan nan nan nan nan nan nan nan nan nan nan nan
285 289 290 289 288 289 nan nan nan nan nan 294 296 nan nan nan nan nan nan nan nan nan nan nan nan nan nan nan nan nan nan nan nan nan nan nan nan nan nan nan nan nan nan nan nan nan nan nan nan nan nan nan nan nan nan nan nan nan nan nan nan nan nan nan nan nan nan nan nan nan nan nan nan nan nan nan nan nan nan nan nan nan nan nan nan
286 nan nan 288 nan 289 290 292 293 nan nan 294 295 nan nan nan nan nan nan nan nan nan nan nan nan nan nan nan nan nan nan nan nan nan nan nan nan nan nan nan nan nan nan nan nan nan nan nan nan nan nan nan nan nan nan nan nan nan nan nan nan nan nan nan nan nan nan nan nan nan nan nan nan nan nan nan nan nan nan nan nan nan nan nan nan
286 287 287 287 288 289 290 292 295 296 295 nan 294 294 294 293 nan nan nan nan nan nan nan nan nan nan nan nan nan nan nan nan nan nan nan nan nan nan nan nan nan nan nan nan nan nan nan nan nan nan nan nan nan nan nan nan nan nan nan nan nan nan nan nan nan nan nan nan nan nan nan nan nan nan nan nan nan nan nan nan nan nan nan nan nan
287 286 285 285 289 293 295 295 294 293 291 290 289 290 288 287 nan nan nan nan nan nan nan nan nan nan nan nan nan nan nan nan nan nan nan nan nan nan nan nan nan nan nan nan nan nan nan nan nan nan nan nan nan nan nan nan nan nan nan nan nan nan nan nan nan nan nan nan nan nan nan nan nan nan nan nan nan nan nan nan nan nan nan nan nan
283 282 282 284 285 288 291 291 290 290 288 286 284 283 283 284 285 nan nan nan nan nan nan nan nan nan nan nan nan nan nan nan nan nan nan nan nan nan nan nan nan nan nan nan nan nan nan nan nan nan nan nan nan nan nan nan nan nan nan nan nan nan nan nan nan nan nan nan nan nan nan nan nan nan nan nan nan nan nan nan nan nan nan nan nan
285 288 289 290 nan 291 289 289 289 289 288 286 285 284 285 285 287 nan nan nan nan nan nan nan nan nan nan nan nan nan nan nan nan nan nan nan nan nan nan nan nan nan nan nan nan nan nan nan nan nan nan nan nan nan nan nan nan nan nan nan nan nan nan nan nan nan nan nan nan nan nan nan nan nan nan nan nan nan nan nan nan nan nan nan nan
290 290 291 nan nan nan 289 289 287 286 287 288 287 nan nan nan nan nan nan nan nan nan nan nan nan nan nan nan nan nan nan nan nan nan nan nan nan nan nan nan nan nan nan nan nan nan nan nan nan nan nan nan nan nan nan nan nan nan nan nan nan nan nan nan nan nan nan nan nan nan nan nan nan nan nan nan nan nan nan nan nan nan nan nan nan
nan nan nan nan nan nan 292 291 nan nan nan nan nan nan nan nan nan nan nan nan nan nan nan nan nan nan nan nan nan nan nan nan nan nan nan nan nan nan nan nan nan nan nan nan nan nan nan nan nan nan nan nan nan nan nan nan nan nan nan nan nan nan nan nan nan nan nan nan nan nan nan nan nan nan nan nan nan nan nan nan nan nan nan nan nan
nan nan nan nan nan nan nan nan nan nan nan nan nan nan nan nan nan nan nan nan nan nan nan nan nan nan nan nan nan nan nan nan nan nan nan nan nan nan nan nan nan nan nan nan nan nan nan nan nan nan nan nan nan nan nan nan nan nan nan nan nan nan nan nan nan nan nan nan nan nan nan nan nan nan nan nan nan nan nan nan nan nan nan nan nan
nan nan nan nan nan nan nan nan nan nan nan nan nan nan nan nan nan nan nan nan nan nan nan nan nan nan nan nan nan nan nan nan nan nan nan nan nan nan nan nan nan nan nan nan nan nan nan nan nan nan nan nan nan nan nan nan nan nan nan nan nan nan nan nan nan nan nan nan nan nan nan nan nan nan nan nan nan nan nan nan nan nan nan nan nan
nan nan nan nan nan nan nan nan nan nan nan nan nan nan nan nan nan nan nan nan nan nan nan nan nan nan nan nan nan nan nan nan nan nan nan nan nan nan nan nan nan nan nan nan nan nan nan nan nan nan nan nan nan nan nan nan nan nan nan nan nan nan nan nan nan nan nan nan nan nan nan nan nan nan nan nan nan nan nan nan nan nan nan nan nan
nan nan nan nan nan nan nan nan nan nan nan nan nan nan nan nan nan nan nan nan nan nan nan nan nan nan nan nan nan nan nan nan nan nan nan nan nan nan nan nan nan nan nan nan nan nan nan nan nan nan nan nan nan nan nan nan nan nan nan nan nan nan nan nan nan nan nan nan nan nan nan nan nan nan nan nan nan nan nan nan nan nan nan nan nan
nan nan nan nan nan nan nan nan nan nan nan nan nan nan nan nan nan nan nan nan nan nan nan nan nan nan nan nan nan nan nan nan nan nan nan nan nan nan nan nan nan nan nan nan nan nan nan nan nan nan nan nan nan nan nan nan nan nan nan nan nan nan nan nan nan nan nan nan nan nan nan nan nan nan nan nan nan nan nan nan nan nan nan nan nan